D-SAT
1 42794U 17036AF 17201.50577536 .00001081 00000-0 51684-4 0 9990
2 42794 097.4474 260.9689 0010749 149.5725 210.6136 15.21114495004081
Object AG
1 42795U 17036AG 17201.50535529 .00002292 00000-0 10591-3 0 9993
2 42795 097.4473 260.9679 0010762 149.4778 210.7086 15.21155644004088
Object AH
1 42796U 17036AH 17201.13074982 .00016553 00000-0 12232-3 0 9993
2 42796 094.6132 253.0056 0026597 203.7025 156.3022 15.72460293004062
Object U
1 42820U 98067MU 17201.46606857 .00007130 00000-0 11071-3 0 9993
2 42820 051.6388 232.3616 0004175 016.1620 343.9503 15.55152209002054
Object V
1 42821U 98067MV 17201.46636042 .00006916 00000-0 10775-3 0 9994
2 42821 051.6387 232.3639 0004154 018.3148 341.7992 15.55112867002037
Object W
1 42822U 98067MW 17201.53086575 .00007155 00000-0 11133-3 0 9998
2 42822 051.6388 232.0445 0004238 020.6820 339.4342 15.55087302002046
Object X
1 42823U 98067MX 17201.40274452 .00007200 00000-0 11212-3 0 9997
2 42823 051.6391 232.6898 0007926 031.9556 328.1914 15.55040400002012
Object Y
1 42824U 98067MY 17201.40317390 .00007102 00000-0 11091-3 0 9993
2 42824 051.6392 232.6925 0007804 032.8056 327.3418 15.54987360002020
/EX
1
0
SB KEPS @ AMSAT $ORB17194.N
2Line Orbital Elements 17194.AMSAT
HR AMSAT ORBITAL ELEMENTS FOR AMATEUR SATELLITES IN NASA FORMAT
FROM WA5QGD FORT WORTH,TX July 13, 2017
BID: ORB17194.N
DECODE 2-LINE ELSETS WITH THE FOLLOWING KEY:
1 AAAAAU 00 0 0 BBBBB.BBBBBBBB .CCCCCCCC 00000-0 00000-0 0 DDDZ
2 AAAAA EEE.EEEE FFF.FFFF GGGGGGG HHH.HHHH III.IIII JJ.JJJJJJJJKKKKKZ
KEY: A-CATALOGNUM B-EPOCHTIME C-DECAY D-ELSETNUM E-INCLINATION F-RAAN
G-ECCENTRICITY H-ARGPERIGEE I-MNANOM J-MNMOTION K-ORBITNUM Z-CHECKSUM
TO ALL RADIO AMATEURS BT
AO-07
1 07530U 74089B 17194.43253078 -.00000032 00000-0 75190-4 0 9999
2 07530 101.6321 162.6020 0011590 272.1904 240.0668 12.53627717951911
UO-11
1 14781U 84021B 17194.55101725 .00000074 00000-0 15370-4 0 9995
2 14781 097.6951 239.2925 0009988 110.5134 249.7153 14.82908600773254
LO-19
1 20442U 90005G 17194.40032017 .00000009 00000-0 19402-4 0 9994
2 20442 098.5762 130.6495 0012950 072.0201 288.2393 14.32864091435317
HUBBLE
1 20580U 90037B 17194.42154016 .00000412 00000-0 14376-4 0 9991
2 20580 028.4684 194.1666 0003012 095.8133 053.8204 15.08796437294161
MET-2/21
1 22782U 93055A 17194.55146953 .00000016 00000-0 84383-6 0 9992
2 22782 082.5489 002.6602 0022331 000.5675 030.6535 13.83800792205076
AO-27
1 22825U 93061C 17194.43131217 -.00000009 00000-0 14255-4 0 9993
2 22825 098.8141 160.3383 0007291 253.3645 106.6737 14.30000266240887
IO-26
1 22826U 93061D 17194.45633952 .00000003 00000-0 18804-4 0 9996
2 22826 098.8083 160.4424 0007872 242.3702 117.6681 14.30329288241088
FO-29
1 24278U 96046B 17194.63558010 -.00000048 00000-0 -92658-5 0 9997
2 24278 098.5599 074.3715 0349282 268.8861 087.2251 13.53077026032200
NOAA-15
1 25338U 98030A 17194.60105062 .00000056 00000-0 42515-4 0 9995
2 25338 098.7812 205.5639 0011553 126.4760 233.7485 14.25805402996501
GO-32
1 25397U 98043D 17194.41048381 -.00000008 00000-0 15227-4 0 9991
2 25397 098.6109 136.1961 0000398 352.2869 007.8303 14.23624693987525
ISS
1 25544U 98067A 17194.54526689 .00001934 00000-0 36440-4 0 9995
2 25544 051.6424 266.9410 0005615 031.0922 061.5291 15.54162338065852
NO-44
1 26931U 01043C 17194.53677130 -.00000041 00000-0 16196-4 0 9996
2 26931 067.0514 023.2108 0007505 261.6532 098.3718 14.30466224824040
SO-50
1 27607U 02058C 17194.57476465 .00000005 00000-0 21064-4 0 9995
2 27607 064.5558 044.9269 0029793 082.8555 277.5933 14.75338732782875
CO-55
1 27844U 03031E 17194.46057677 .00000039 00000-0 37238-4 0 9995
2 27844 098.6889 203.0845 0008486 272.3623 087.6583 14.22046619728018
CO-57
1 27848U 03031J 17194.46747270 .00000026 00000-0 31671-4 0 9995
2 27848 098.6982 203.3612 0008436 282.9903 077.0333 14.21660298727901
RS-22
1 27939U 03042A 17194.58072025 .00000075 00000-0 21830-4 0 9990
2 27939 097.9428 338.4750 0013967 138.1893 287.9333 14.66577208737042
NOAA-18
1 28654U 05018A 17194.54995596 -.00000006 00000-0 22163-4 0 9998
2 28654 099.1809 217.4069 0014312 002.6119 357.5124 14.12342040625889
CO-58
1 28895U 05043F 17194.42943913 .00000120 00000-0 31853-4 0 9998
2 28895 097.8676 355.5147 0018127 063.2136 297.0919 14.63409400624322
Falconsat-3
1 30776U 07006E 17194.55108709 .00002185 00000-0 69851-4 0 9992
2 30776 035.4359 259.3518 0003342 216.5058 143.5440 15.32384113572305
CO-65
1 32785U 08021C 17194.47045980 .00000220 00000-0 29621-4 0 9993
2 32785 097.5651 217.5418 0014757 082.5912 277.6981 14.87904373498736
AAUSAT2
1 32788U 08021F 17194.55739034 .00000413 00000-0 43947-4 0 9996
2 32788 097.5569 229.5469 0013125 048.2607 311.9734 14.93899609499511
DO-64
1 32789U 08021G 17194.35524949 .00001248 00000-0 92242-4 0 9991
2 32789 097.5581 252.0340 0013142 021.1858 338.9910 15.04947610500700
CO-66
1 32791U 08021J 17194.49774644 .00000401 00000-0 46671-4 0 9993
2 32791 097.5618 222.0138 0014950 068.7079 291.5734 14.90244086498981
RS-30
1 32953U 08025A 17194.52131403 .00000010 00000-0 -94481-6 0 9992
2 32953 082.5007 223.2779 0018051 224.7356 135.2268 12.43077961414693
PRISM
1 33493U 09002B 17194.52211983 .00000395 00000-0 41165-4 0 9994
2 33493 098.1664 078.0650 0015966 001.3766 358.7459 14.95706332459711
NOAA-19
1 33591U 09005A 17194.55471750 .00000099 00000-0 78975-4 0 9999
2 33591 099.0944 161.7572 0013593 193.9644 166.1152 14.12194045434110
TISAT-1
1 36799U 10035E 17194.12597072 .00000287 00000-0 35550-4 0 9997
2 36799 098.0650 317.3816 0011228 237.9961 122.0166 14.90415506379444
JUGNU
1 37839U 11058B 17194.57413155 .00000310 00000-0 23661-4 0 9994
2 37839 019.9616 290.4876 0019057 113.8163 005.7411 14.12586946297322
SRMSAT
1 37841U 11058D 17194.59792028 .00000299 00000-0 19041-4 0 9991
2 37841 019.9731 332.5683 0011932 011.7598 077.1888 14.10578220296929
AO-71
1 37854U 11061E 17194.39419537 .00001438 00000-0 84415-4 0 9991
2 37854 101.6995 081.3504 0167516 357.5176 002.5187 15.04165133310423
HRBE
1 37855U 11061F 17194.62195303 .00001912 00000-0 10736-3 0 9991
2 37855 101.7125 079.4815 0180690 003.4789 356.7632 15.03128150310299
ALMASAT-1
1 38078U 12006B 17194.62935879 .00008699 37255-5 10292-3 0 9992
2 38078 069.4404 061.1251 0310216 251.9954 104.7157 15.22660048288815
HORYU-2
1 38340U 12025D 17194.46976188 .00000189 00000-0 35954-4 0 9997
2 38340 098.3763 199.3171 0011036 202.2936 157.7793 14.75353308266756
RS-40
1 38735U 12041C 17194.61973997 .00000030 00000-0 14378-3 0 9996
2 38735 082.4780 307.7018 0015973 333.6603 026.3663 12.42574737224952
BEESAT-3
1 39134U 13015E 17194.24287088 .00001178 00000-0 66895-4 0 9996
2 39134 064.8645 142.3564 0036988 261.6671 098.0261 15.17860150233056
BEESAT-2
1 39136U 13015G 17194.24861632 .00000922 00000-0 58825-4 0 9991
2 39136 064.8691 153.3895 0033068 279.4386 080.3001 15.15135094233229
